| time (UTC) | temp C | wind direction | speed KPH | gust KPH | rain 1hr cm | rain 24hr cm | rain mn cm | humidity % | barometer mb |
| 20260504010545 | 8 | 282 | 0.0 | 0.0 | 0.00 | 0.00 | 0.00 | 71 | 983.5 |
| 20260504010042 | 9 | 282 | 0.0 | 0.0 | 0.00 | 0.00 | 0.00 | 70 | 983.8 |
| 20260504005538 | 10 | 282 | 0.0 | 0.0 | 0.00 | 0.00 | 0.00 | 67 | 983.6 |
| 20260504005036 | 10 | 282 | 0.0 | 0.0 | 0.00 | 0.00 | 0.00 | 64 | 983.5 |
| 20260504004533 | 10 | 286 | 0.0 | 0.0 | 0.00 | 0.00 | 0.00 | 59 | 983.7 |
| 20260504004030 | 11 | 282 | 0.0 | 0.0 | 0.00 | 0.00 | 0.00 | 58 | 983.6 |
| 20260504003526 | 11 | 284 | 0.0 | 0.0 | 0.00 | 0.00 | 0.00 | 55 | 983.4 |
| 20260504003023 | 12 | 310 | 3.2 | 3.2 | 0.00 | 0.00 | 0.00 | 54 | 983.3 |
| 20260504002520 | 12 | 275 | 0.0 | 3.2 | 0.00 | 0.00 | 0.00 | 51 | 983.5 |
| 20260504002018 | 12 | 273 | 1.6 | 3.2 | 0.00 | 0.00 | 0.00 | 50 | 983.4 |
| 20260504001515 | 12 | 236 | 3.2 | 4.8 | 0.00 | 0.00 | 0.00 | 51 | 983.6 |
| 20260504001011 | 12 | 283 | 0.0 | 1.6 | 0.00 | 0.00 | 0.00 | 52 | 983.6 |
| 20260504000509 | 12 | 199 | 4.8 | 8.0 | 0.00 | 0.00 | 0.00 | 51 | 983.6 |
| 20260504000006 | 13 | 254 | 3.2 | 8.0 | 0.00 | 0.00 | 0.00 | 50 | 983.6 |
| 20260503235504 | 13 | 275 | 1.6 | 3.2 | 0.00 | 0.00 | 0.00 | 50 | 983.4 |
| 20260503235001 | 13 | 258 | 3.2 | 4.8 | 0.00 | 0.00 | 0.00 | 48 | 983.4 |
| 20260503234458 | 13 | 231 | 4.8 | 4.8 | 0.00 | 0.00 | 0.00 | 48 | 983.6 |
| 20260503233956 | 13 | 245 | 4.8 | 8.0 | 0.00 | 0.00 | 0.00 | 47 | 983.4 |
| 20260503233452 | 13 | 253 | 3.2 | 4.8 | 0.00 | 0.00 | 0.00 | 50 | 983.5 |
| 20260503232948 | 13 | 278 | 0.0 | 1.6 | 0.00 | 0.00 | 0.00 | 49 | 983.5 |
| 20260503232446 | 13 | 280 | 1.6 | 3.2 | 0.00 | 0.00 | 0.00 | 47 | 983.5 |
| 20260503231944 | 13 | 273 | 1.6 | 9.7 | 0.00 | 0.00 | 0.00 | 47 | 983.4 |
| 20260503231441 | 13 | 285 | 1.6 | 11.3 | 0.00 | 0.00 | 0.00 | 47 | 983.3 |
| 20260503230937 | 13 | 273 | 1.6 | 3.2 | 0.00 | 0.00 | 0.00 | 49 | 983.4 |
| 20260503230434 | 13 | 280 | 1.6 | 8.0 | 0.00 | 0.00 | 0.00 | 46 | 983.6 |
| 20260503225932 | 13 | 274 | 1.6 | 4.8 | 0.00 | 0.00 | 0.00 | 47 | 983.6 |
| 20260503225428 | 13 | 262 | 6.4 | 8.0 | 0.00 | 0.00 | 0.00 | 45 | 983.5 |
| 20260503224924 | 13 | 277 | 1.6 | 3.2 | 0.00 | 0.00 | 0.00 | 46 | 983.4 |
| 20260503224421 | 14 | 261 | 4.8 | 9.7 | 0.00 | 0.00 | 0.00 | 45 | 983.6 |
| 20260503223919 | 14 | 254 | 1.6 | 11.3 | 0.00 | 0.00 | 0.00 | 46 | 983.4 |
| 20260503223416 | 14 | 259 | 4.8 | 11.3 | 0.00 | 0.00 | 0.00 | 45 | 983.5 |
| 20260503222917 | 14 | 258 | 1.6 | 4.8 | 0.00 | 0.00 | 0.00 | 48 | 983.5 |
| 20260503222415 | 13 | 276 | 6.4 | 8.0 | 0.00 | 0.00 | 0.00 | 45 | 983.5 |
| 20260503221914 | 14 | 275 | 3.2 | 8.0 | 0.00 | 0.00 | 0.00 | 47 | 983.7 |
| 20260503221412 | 14 | 190 | 8.0 | 14.5 | 0.00 | 0.00 | 0.00 | 43 | 983.5 |
| 20260503220908 | 14 | 261 | 6.4 | 14.5 | 0.00 | 0.00 | 0.00 | 44 | 983.6 |
| 20260503220404 | 14 | 268 | 1.6 | 3.2 | 0.00 | 0.00 | 0.00 | 49 | 983.4 |
| 20260503215901 | 14 | 266 | 3.2 | 4.8 | 0.00 | 0.00 | 0.00 | 45 | 983.4 |
| 20260503215358 | 15 | 309 | 1.6 | 9.7 | 0.00 | 0.00 | 0.00 | 46 | 983.3 |
| 20260503214856 | 15 | 238 | 4.8 | 9.7 | 0.00 | 0.00 | 0.00 | 43 | 983.4 |
| 20260503214353 | 15 | 243 | 4.8 | 12.9 | 0.00 | 0.00 | 0.00 | 46 | 983.2 |
| 20260503213850 | 15 | 274 | 3.2 | 4.8 | 0.00 | 0.00 | 0.00 | 41 | 983.5 |
| 20260503213348 | 15 | 353 | 4.8 | 11.3 | 0.00 | 0.00 | 0.00 | 42 | 983.2 |
| 20260503212845 | 15 | 183 | 9.7 | 12.9 | 0.00 | 0.00 | 0.00 | 42 | 983.4 |
| 20260503212343 | 15 | 232 | 4.8 | 11.3 | 0.00 | 0.00 | 0.00 | 42 | 983.4 |
| 20260503211839 | 15 | 267 | 3.2 | 4.8 | 0.00 | 0.00 | 0.00 | 45 | 983.2 |
| 20260503211336 | 15 | 250 | 6.4 | 9.7 | 0.00 | 0.00 | 0.00 | 41 | 983.1 |
| 20260503210831 | 15 | 265 | 3.2 | 14.5 | 0.00 | 0.00 | 0.00 | 45 | 983.4 |
| 20260503210329 | 15 | 32 | 4.8 | 8.0 | 0.00 | 0.00 | 0.00 | 45 | 983.2 |
| 20260503205824 | 15 | 264 | 6.4 | 9.7 | 0.00 | 0.00 | 0.00 | 44 | 983.2 |
| 20260503205321 | 15 | 263 | 4.8 | 8.0 | 0.00 | 0.00 | 0.00 | 43 | 983.5 |
| 20260503204817 | 15 | 275 | 3.2 | 11.3 | 0.00 | 0.00 | 0.00 | 45 | 983.5 |
| 20260503204315 | 14 | 136 | 9.7 | 12.9 | 0.00 | 0.00 | 0.00 | 45 | 983.5 |
| 20260503203812 | 14 | 277 | 4.8 | 8.0 | 0.00 | 0.00 | 0.00 | 47 | 983.7 |
| 20260503203309 | 15 | 230 | 6.4 | 11.3 | 0.00 | 0.00 | 0.00 | 45 | 983.8 |
| 20260503202806 | 15 | 277 | 3.2 | 9.7 | 0.00 | 0.00 | 0.00 | 44 | 983.5 |
| 20260503202304 | 14 | 283 | 3.2 | 8.0 | 0.00 | 0.00 | 0.00 | 47 | 983.9 |
| 20260503201802 | 14 | 283 | 6.4 | 9.7 | 0.00 | 0.00 | 0.00 | 45 | 983.9 |
| 20260503201259 | 15 | 315 | 3.2 | 9.7 | 0.00 | 0.00 | 0.00 | 46 | 983.9 |
| 20260503200756 | 15 | 270 | 1.6 | 3.2 | 0.00 | 0.00 | 0.00 | 47 | 984.0 |
| 20260503200252 | 15 | 282 | 0.0 | 11.3 | 0.00 | 0.00 | 0.00 | 44 | 984.0 |
| 20260503195749 | 15 | 201 | 3.2 | 12.9 | 0.00 | 0.00 | 0.00 | 47 | 983.9 |
| 20260503195246 | 15 | 270 | 6.4 | 14.5 | 0.00 | 0.00 | 0.00 | 45 | 984.1 |
| 20260503194743 | 14 | 280 | 1.6 | 9.7 | 0.00 | 0.00 | 0.00 | 47 | 984.5 |
| 20260503194239 | 15 | 260 | 6.4 | 9.7 | 0.00 | 0.00 | 0.00 | 43 | 984.4 |
| 20260503193735 | 14 | 285 | 1.6 | 4.8 | 0.00 | 0.00 | 0.00 | 43 | 984.4 |
| 20260503193231 | 15 | 278 | 3.2 | 16.1 | 0.00 | 0.00 | 0.00 | 47 | 984.5 |
| 20260503192727 | 14 | 59 | 4.8 | 4.8 | 0.00 | 0.00 | 0.00 | 44 | 984.6 |
| 20260503192222 | 14 | 255 | 4.8 | 11.3 | 0.00 | 0.00 | 0.00 | 45 | 984.5 |
| 20260503191720 | 15 | 65 | 4.8 | 4.8 | 0.00 | 0.00 | 0.00 | 41 | 984.6 |
| 20260503191217 | 15 | 276 | 6.4 | 9.7 | 0.00 | 0.00 | 0.00 | 44 | 984.6 |
| 20260503190714 | 15 | 259 | 6.4 | 9.7 | 0.00 | 0.00 | 0.00 | 44 | 984.8 |
| 20260503190210 | 15 | 290 | 3.2 | 8.0 | 0.00 | 0.00 | 0.00 | 43 | 984.9 |
| 20260503185708 | 15 | 297 | 4.8 | 8.0 | 0.00 | 0.00 | 0.00 | 44 | 984.9 |
| 20260503185202 | 14 | 279 | 8.0 | 9.7 | 0.00 | 0.00 | 0.00 | 46 | 984.6 |
| 20260503184657 | 14 | 194 | 4.8 | 11.3 | 0.00 | 0.00 | 0.00 | 50 | 985.1 |
| 20260503184154 | 13 | 269 | 1.6 | 8.0 | 0.00 | 0.00 | 0.00 | 48 | 985.1 |
| 20260503183650 | 13 | 265 | 8.0 | 11.3 | 0.00 | 0.00 | 0.00 | 45 | 985.2 |
| 20260503183148 | 13 | 244 | 4.8 | 16.1 | 0.00 | 0.00 | 0.00 | 47 | 985.3 |
| 20260503182646 | 14 | 292 | 4.8 | 4.8 | 0.00 | 0.00 | 0.00 | 45 | 985.3 |
| 20260503182144 | 15 | 285 | 1.6 | 8.0 | 0.00 | 0.00 | 0.00 | 47 | 985.5 |
| 20260503181641 | 15 | 271 | 6.4 | 22.5 | 0.00 | 0.00 | 0.00 | 45 | 985.1 |
| 20260503181138 | 13 | 150 | 8.0 | 14.5 | 0.00 | 0.00 | 0.00 | 49 | 985.1 |
| 20260503180634 | 13 | 215 | 4.8 | 4.8 | 0.00 | 0.00 | 0.00 | 49 | 985.3 |
| 20260503180133 | 12 | 341 | 3.2 | 4.8 | 0.00 | 0.00 | 0.00 | 48 | 985.4 |
| 20260503175629 | 12 | 259 | 4.8 | 14.5 | 0.00 | 0.00 | 0.00 | 47 | 985.6 |
| 20260503175126 | 13 | 263 | 4.8 | 14.5 | 0.00 | 0.00 | 0.00 | 46 | 985.6 |
| 20260503174623 | 13 | 245 | 8.0 | 11.3 | 0.00 | 0.00 | 0.00 | 45 | 985.6 |
| 20260503174120 | 13 | 180 | 4.8 | 8.0 | 0.00 | 0.00 | 0.00 | 49 | 985.7 |
| 20260503173615 | 13 | 286 | 4.8 | 9.7 | 0.00 | 0.00 | 0.00 | 46 | 985.8 |
| 20260503173112 | 13 | 278 | 3.2 | 11.3 | 0.00 | 0.00 | 0.00 | 45 | 986.1 |
| 20260503172609 | 13 | 297 | 6.4 | 11.3 | 0.00 | 0.00 | 0.00 | 44 | 985.9 |
| 20260503172106 | 13 | 282 | 3.2 | 8.0 | 0.00 | 0.00 | 0.00 | 45 | 985.9 |
| 20260503171603 | 13 | 281 | 4.8 | 8.0 | 0.00 | 0.00 | 0.00 | 48 | 985.8 |
| 20260503171100 | 13 | 236 | 1.6 | 8.0 | 0.00 | 0.00 | 0.00 | 48 | 986.0 |
| 20260503170556 | 13 | 309 | 4.8 | 11.3 | 0.00 | 0.00 | 0.00 | 45 | 986.0 |
| 20260503150949 | 11 | 315 | 4.8 | 11.3 | 0.00 | 0.00 | 0.00 | 41 | 987.1 |
| 20260503150445 | 11 | 268 | 4.8 | 9.7 | 0.00 | 0.00 | 0.00 | 53 | 987.2 |
| 20260503131338 | 6 | 271 | 4.8 | 9.7 | 0.00 | 0.00 | 0.00 | 67 | 987.5 |
| 20260503130836 | 6 | 267 | 1.6 | 3.2 | 0.00 | 0.00 | 0.00 | 73 | 987.4 |
| 20260503130333 | 5 | 283 | 0.0 | 4.8 | 0.00 | 0.00 | 0.00 | 74 | 987.6 |
| 20260503110727 | -1 | 286 | 0.0 | 0.0 | 0.00 | 0.00 | 0.00 | 98 | 987.2 |
| 20260503110224 | -1 | 287 | 0.0 | 0.0 | 0.00 | 0.00 | 0.00 | 98 | 987.2 |
| 20260503100150 | -2 | 285 | 0.0 | 0.0 | 0.00 | 0.00 | 0.00 | 98 | 986.9 |
| 20260503090109 | -2 | 280 | 0.0 | 0.0 | 0.00 | 0.00 | 0.00 | 97 | 986.8 |
| 20260503081545 | -2 | 280 | 0.0 | 0.0 | 0.00 | 0.00 | 0.00 | 97 | 986.8 |
| 20260503081042 | -2 | 280 | 0.0 | 0.0 | 0.00 | 0.00 | 0.00 | 97 | 987.0 |
| 20260503080538 | -2 | 280 | 0.0 | 0.0 | 0.00 | 0.00 | 0.00 | 97 | 987.2 |
| 20260503072512 | -1 | 281 | 0.0 | 0.0 | 0.00 | 0.00 | 0.00 | 96 | 986.9 |
| 20260503072009 | -1 | 281 | 0.0 | 0.0 | 0.00 | 0.00 | 0.00 | 96 | 986.9 |
| 20260503071506 | -1 | 281 | 0.0 | 0.0 | 0.00 | 0.00 | 0.00 | 96 | 986.9 |
| 20260503071002 | -1 | 281 | 0.0 | 0.0 | 0.00 | 0.00 | 0.00 | 96 | 986.7 |
| 20260503070459 | -1 | 281 | 0.0 | 0.0 | 0.00 | 0.00 | 0.00 | 96 | 986.9 |
| 20260503054923 | -1 | 280 | 0.0 | 0.0 | 0.00 | 0.00 | 0.00 | 95 | 987.0 |
| 20260503054419 | -1 | 280 | 0.0 | 0.0 | 0.00 | 0.00 | 0.00 | 95 | 987.1 |
| 20260503053917 | -1 | 281 | 0.0 | 0.0 | 0.00 | 0.00 | 0.00 | 95 | 987.1 |
| 20260503053414 | -1 | 281 | 0.0 | 0.0 | 0.00 | 0.00 | 0.00 | 94 | 987.2 |
| 20260503052911 | -1 | 281 | 0.0 | 0.0 | 0.00 | 0.00 | 0.00 | 94 | 987.3 |
| 20260503052408 | -1 | 281 | 0.0 | 0.0 | 0.00 | 0.00 | 0.00 | 94 | 987.3 |
| 20260503051904 | -1 | 280 | 0.0 | 0.0 | 0.00 | 0.00 | 0.00 | 94 | 987.4 |
| 20260503051400 | 0 | 281 | 0.0 | 0.0 | 0.00 | 0.00 | 0.00 | 94 | 987.1 |
| 20260503050858 | 0 | 280 | 0.0 | 0.0 | 0.00 | 0.00 | 0.00 | 94 | 987.3 |
| 20260503050354 | 0 | 281 | 0.0 | 0.0 | 0.00 | 0.00 | 0.00 | 94 | 987.3 |
| 20260503045852 | 0 | 281 | 0.0 | 0.0 | 0.00 | 0.00 | 0.00 | 93 | 987.4 |
| 20260503045349 | 0 | 280 | 0.0 | 0.0 | 0.00 | 0.00 | 0.00 | 93 | 987.4 |
| 20260503044845 | 0 | 280 | 0.0 | 0.0 | 0.00 | 0.00 | 0.00 | 92 | 987.4 |
| 20260503044342 | 0 | 280 | 0.0 | 0.0 | 0.00 | 0.00 | 0.00 | 91 | 987.4 |
| 20260503043839 | 0 | 280 | 0.0 | 0.0 | 0.00 | 0.00 | 0.00 | 91 | 987.5 |
| 20260503043336 | 0 | 280 | 0.0 | 0.0 | 0.00 | 0.00 | 0.00 | 91 | 987.3 |
| 20260503042832 | 0 | 280 | 0.0 | 0.0 | 0.00 | 0.00 | 0.00 | 90 | 987.6 |
| 20260503042329 | 0 | 280 | 0.0 | 0.0 | 0.00 | 0.00 | 0.00 | 90 | 987.6 |
| 20260503041825 | 0 | 280 | 0.0 | 0.0 | 0.00 | 0.00 | 0.00 | 89 | 987.4 |
| 20260503041323 | 0 | 280 | 0.0 | 0.0 | 0.00 | 0.00 | 0.00 | 89 | 987.3 |
| 20260503040820 | 1 | 280 | 0.0 | 0.0 | 0.00 | 0.00 | 0.00 | 88 | 987.4 |
| 20260503040318 | 1 | 280 | 0.0 | 0.0 | 0.00 | 0.00 | 0.00 | 88 | 987.4 |
| 20260503035815 | 1 | 280 | 0.0 | 0.0 | 0.00 | 0.08 | 0.08 | 87 | 987.3 |
| 20260503035312 | 1 | 280 | 0.0 | 0.0 | 0.00 | 0.08 | 0.08 | 87 | 987.3 |
| 20260503034809 | 1 | 280 | 0.0 | 0.0 | 0.00 | 0.08 | 0.08 | 86 | 987.3 |
| 20260503034306 | 2 | 280 | 0.0 | 0.0 | 0.00 | 0.08 | 0.08 | 86 | 987.2 |
| 20260503033803 | 2 | 280 | 0.0 | 0.0 | 0.00 | 0.08 | 0.08 | 86 | 987.5 |
| 20260503033300 | 2 | 280 | 0.0 | 0.0 | 0.00 | 0.08 | 0.08 | 86 | 987.4 |
| 20260503032759 | 2 | 280 | 0.0 | 0.0 | 0.00 | 0.08 | 0.08 | 85 | 987.2 |
| 20260503032257 | 2 | 280 | 0.0 | 0.0 | 0.00 | 0.08 | 0.08 | 85 | 987.6 |
| 20260503031754 | 2 | 280 | 0.0 | 0.0 | 0.00 | 0.08 | 0.08 | 85 | 987.5 |
| 20260503031252 | 2 | 280 | 0.0 | 0.0 | 0.00 | 0.08 | 0.08 | 84 | 987.4 |
| 20260503030748 | 2 | 280 | 0.0 | 0.0 | 0.00 | 0.08 | 0.08 | 85 | 987.5 |
| 20260503030245 | 2 | 280 | 0.0 | 0.0 | 0.00 | 0.08 | 0.08 | 84 | 987.4 |
| 20260503025741 | 2 | 280 | 0.0 | 0.0 | 0.00 | 0.08 | 0.08 | 84 | 987.6 |
| 20260503025239 | 2 | 280 | 0.0 | 0.0 | 0.00 | 0.08 | 0.08 | 83 | 987.3 |
| 20260503024736 | 2 | 280 | 0.0 | 0.0 | 0.00 | 0.08 | 0.08 | 83 | 987.5 |
| 20260503024233 | 2 | 280 | 0.0 | 0.0 | 0.00 | 0.08 | 0.08 | 83 | 987.7 |
| 20260503023730 | 2 | 280 | 0.0 | 0.0 | 0.00 | 0.08 | 0.08 | 83 | 987.5 |
| 20260503023227 | 2 | 280 | 0.0 | 0.0 | 0.00 | 0.08 | 0.08 | 83 | 987.8 |
| 20260503022723 | 2 | 280 | 0.0 | 0.0 | 0.00 | 0.08 | 0.08 | 82 | 987.9 |
| 20260503022223 | 2 | 280 | 0.0 | 0.0 | 0.00 | 0.08 | 0.08 | 81 | 987.8 |
| 20260503021720 | 2 | 280 | 0.0 | 0.0 | 0.00 | 0.08 | 0.08 | 82 | 987.7 |
| 20260503021216 | 3 | 280 | 0.0 | 0.0 | 0.00 | 0.08 | 0.08 | 82 | 987.8 |
| 20260503020714 | 3 | 280 | 0.0 | 0.0 | 0.00 | 0.08 | 0.08 | 80 | 987.7 |
| 20260503020211 | 3 | 280 | 0.0 | 0.0 | 0.00 | 0.08 | 0.08 | 80 | 987.7 |
| 20260503015708 | 3 | 279 | 0.0 | 0.0 | 0.00 | 0.08 | 0.08 | 79 | 987.5 |
| 20260503015205 | 3 | 280 | 0.0 | 0.0 | 0.00 | 0.08 | 0.08 | 79 | 987.9 |
| 20260503014700 | 3 | 280 | 0.0 | 0.0 | 0.00 | 0.08 | 0.08 | 81 | 987.8 |
| 20260503014158 | 3 | 280 | 0.0 | 0.0 | 0.00 | 0.08 | 0.08 | 80 | 987.7 |
| 20260503013655 | 3 | 280 | 0.0 | 0.0 | 0.00 | 0.08 | 0.08 | 79 | 987.6 |
| 20260503013153 | 3 | 280 | 0.0 | 0.0 | 0.00 | 0.08 | 0.08 | 77 | 987.6 |
| 20260503012650 | 3 | 280 | 0.0 | 0.0 | 0.00 | 0.08 | 0.08 | 74 | 987.6 |
| 20260503012147 | 3 | 280 | 0.0 | 0.0 | 0.00 | 0.08 | 0.08 | 74 | 987.7 |
| 20260503011643 | 3 | 280 | 0.0 | 1.6 | 0.00 | 0.08 | 0.08 | 72 | 987.5 |
| 20260503011140 | 3 | 280 | 0.0 | 0.0 | 0.00 | 0.08 | 0.08 | 72 | 987.5 |
| 20260503010636 | 3 | 280 | 0.0 | 0.0 | 0.00 | 0.08 | 0.08 | 72 | 987.5 |